This is the latest recevied weather packets stored in our database for station/object K7TUS-6. If no packets are shown the sender has not sent any weather packets the latest 10 day(s).
| Time | Temp. | Humidity | Pressure | Rain* | Wind** | Luminosity | Snow |
|---|---|---|---|---|---|---|---|
| 1777818303 | 14.44° C | 14% | 985.5 hPa | - | - | - | - |
| 1777818008 | 14.44° C | 16% | 986.3 hPa | - | - | - | - |
| 1777817707 | 14.44° C | 16% | 986.2 hPa | - | - | - | - |
| 1777817407 | 13.33° C | 15% | 985.9 hPa | - | - | - | - |
| 1777817106 | 13.33° C | 17% | 985.8 hPa | - | - | - | - |
| 1777816806 | 13.33° C | 17% | 986 hPa | - | - | - | - |
| 1777816505 | 13.33° C | 17% | 986.2 hPa | - | - | - | - |
| 1777815904 | 12.78° C | 18% | 985.1 hPa | - | - | - | - |
| 1777815604 | 12.78° C | 18% | 985.2 hPa | - | - | - | - |
| 1777815303 | 12.22° C | 17% | 985 hPa | - | - | - | - |
| 1777815008 | 12.22° C | 19% | 985.1 hPa | - | - | - | - |
| 1777814408 | 11.67° C | 20% | 984.9 hPa | - | - | - | - |
| 1777814107 | 11.67° C | 18% | 984.5 hPa | - | - | - | - |
| 1777813806 | 11.67° C | 19% | 984.8 hPa | - | - | - | - |
| 1777813506 | 11.67° C | 20% | 985.3 hPa | - | - | - | - |
| 1777813205 | 11.67° C | 20% | 985.3 hPa | - | - | - | - |
| 1777812905 | 11.67° C | 18% | 984.8 hPa | - | - | - | - |
| 1777812604 | 11.67° C | 18% | 984.8 hPa | - | - | - | - |
| 1777812303 | 11.67° C | 17% | 984.1 hPa | - | - | - | - |
| 1777812002 | 11.67° C | 17% | 984.1 hPa | - | - | - | - |
| 1777811708 | 11.67° C | 20% | 984.7 hPa | - | - | - | - |
| 1777811407 | 11.67° C | 20% | 984.7 hPa | - | - | - | - |
| 1777811107 | 11.67° C | 21% | 984.4 hPa | - | - | - | - |
| 1777810806 | 11.11° C | 19% | 984.8 hPa | - | - | - | - |
| 1777810506 | 11.11° C | 19% | 984.3 hPa | - | - | - | - |
* Rain since midnight (hover to see other rain measurements)
** Current wind speed in m/s (hover to see current wind gust speed)